This demonstration page uses our WeatherBlox Daily Observations layout. Learn more.

Left ArrowRight Arrow

Hourly Observations for June 19, 2019

Temp ( °F °C ) Dew Point ( °F °C ) Humidity (%) Winds ( mph kmh ) Pressure ( in mb ) Visibility ( mi km ) Precip ( " mm )
12:09 am 00:09 Cloudy with Heavy Rain 71 21.7 70 21.1 96 96 N N/A 29.85 1011 2 3 0.11 2.79
12:17 am 00:17 Cloudy with Light Rain 71 21.7 70 21.1 96 96 N N/A 29.85 1011 5 8 0.12 3.05
12:53 am 00:53 Mostly Cloudy with Mist and Fog 70 21.1 69 20.6 97 97 N N/A 29.85 1011 5 8 0.12 3.05
1:06 am 01:06 Partly Cloudy with Mist and Fog 70 21.1 69 20.6 97 97 N N/A 29.84 1011 2 3 N/A
1:12 am 01:12 Partly Cloudy with Mist and Fog 69 20.6 68 20 96 96 N N/A 29.84 1011 1 2 N/A
1:24 am 01:24 Partly Cloudy with Mist and Fog 68 20 67 19.4 96 96 N N/A 29.84 1010 1 1 N/A
1:27 am 01:27 Mostly Cloudy with Mist and Fog 68 20 67 19.4 96 96 N N/A 29.84 1010 1 2 N/A
1:43 am 01:43 Mostly Cloudy with Fog 68 20 67 19.4 96 96 N N/A 29.84 1010 1 1 N/A
1:53 am 01:53 Mostly Cloudy with Fog 68 20 67 19.4 96 96 N N/A 29.83 1010 1 1 N/A
2:49 am 02:49 Partly Cloudy with Mist and Fog 66 19 66 19 100 100 N N/A 29.82 1010 1 2 N/A
2:53 am 02:53 Partly Cloudy with Mist and Fog 67 19.4 67 19.4 100 100 N N/A 29.82 1010 2 2 N/A
2:57 am 02:57 Mostly Cloudy with Mist and Fog 67 19.4 66 18.9 97 97 N N/A 29.82 1010 1 1 N/A
3:04 am 03:04 Clear with Mist and Fog 67 19.4 67 19.4 100 100 N N/A 29.82 1010 1 2 N/A
3:09 am 03:09 Clear with Mist and Fog 67 19.4 66 18.9 97 97 N N/A 29.82 1010 2 3 N/A
3:15 am 03:15 Clear with Mist and Fog 67 19.4 66 18.9 97 97 N N/A 29.82 1010 1 2 N/A
3:17 am 03:17 Mostly Cloudy with Mist and Fog 67 19.4 66 18.9 97 97 N N/A 29.82 1010 1 1 N/A
3:53 am 03:53 Mostly Cloudy with Fog 67 19.4 67 19.4 100 100 N N/A 29.81 1009 0 0 N/A
4:53 am 04:53 Mostly Cloudy with Fog 67 19.4 66 18.9 97 97 N N/A 29.80 1009 0 0 N/A
5:17 am 05:17 Cloudy with Mist and Fog 67 19.4 66 18.9 97 97 N N/A 29.81 1009 1 2 N/A
5:28 am 05:28 Mostly Cloudy with Fog 67 19.4 67 19.4 100 100 N N/A 29.81 1009 1 1 N/A
5:53 am 05:53 Mostly Cloudy with Fog 68 20 67 19.4 96 96 N N/A 29.80 1009 1 1 N/A
6:01 am 06:01 Cloudy with Mist and Fog 68 20 68 20 100 100 N N/A 29.81 1009 2 3 N/A
6:08 am 06:08 Cloudy with Mist and Fog 68 20 68 20 100 100 N N/A 29.81 1009 3 4 N/A
6:16 am 06:16 Cloudy with Mist and Fog 68 20 68 20 100 100 N N/A 29.81 1009 3 5 N/A
6:22 am 06:22 Cloudy with Mist and Fog 68 20 67 19.4 96 96 N N/A 29.81 1009 2 3 N/A
6:26 am 06:26 Cloudy with Mist and Fog 68 20 68 20 100 100 N N/A 29.81 1009 1 1 N/A
6:53 am 06:53 Mostly Cloudy with Fog 68 20 68 20 100 100 N N/A 29.81 1010 0 0 N/A
7:48 am 07:48 Cloudy with Mist and Fog 70 21 N/A N/A N N/A 29.80 1009 1 2 N/A
7:53 am 07:53 Cloudy with Mist and Fog 70 21 N/A N/A N N/A 29.80 1009 1 2 N/A
8:01 am 08:01 Cloudy with Mist and Fog 70 21 N/A N/A N N/A 29.80 1009 2 3 N/A
8:07 am 08:07 Cloudy with Mist and Fog 70 21 N/A N/A N N/A 29.80 1009 2 2 N/A
8:16 am 08:16 Cloudy with Mist and Fog 70 21 N/A N/A N N/A 29.80 1009 2 3 N/A
8:29 am 08:29 Cloudy with Mist and Fog 70 21 N/A N/A N N/A 29.80 1009 3 5 N/A
8:36 am 08:36 Cloudy with Mist and Fog 70 21.1 70 21.1 100 100 N N/A 29.79 1009 2 3 N/A
8:53 am 08:53 Cloudy with Mist and Fog 71 21.7 70 21.1 96 96 N N/A 29.80 1009 4 6 N/A
9:53 am 09:53 Mostly Cloudy with Mist and Fog 73 22.8 70 21.1 90 90 N N/A 29.79 1009 5 8 N/A
10:53 am 10:53 Mostly Cloudy 76 24.4 71 21.7 85 85 N N/A 29.79 1009 9 14 N/A
11:08 am 11:08 Mostly Cloudy with Heavy Rain 75 23.9 72 22.2 90 90 S 3 6 29.78 1008 1 2 0.04 1.02
11:19 am 11:19 Cloudy with Light Rain 74 23.3 72 22.2 94 94 N N/A 29.78 1008 2 3 0.06 1.52
11:27 am 11:27 Cloudy with Light Rain 75 23.9 72 22.2 90 90 W 3 6 29.78 1008 9 14 0.06 1.52
11:53 am 11:53 Mostly Sunny 78 25.6 70 21.1 76 76 N N/A 29.78 1008 10 16 0.06 1.52
12:53 pm 12:53 Mostly Cloudy 79 26.1 69 20.6 72 72 N N/A 29.76 1008 10 16 N/A
1:11 pm 13:11 Partly Cloudy with Nearby Thunderstorms 79 26.1 71 21.7 77 77 VRB 5 7 29.74 1007 10 16 N/A
1:39 pm 13:39 Partly Cloudy 80 26.7 71 21.7 74 74 ESE 5 7 29.72 1006 10 16 N/A
1:53 pm 13:53 Mostly Cloudy 79 26.1 71 21.7 77 77 E 6 9 29.73 1007 10 16 N/A
2:01 pm 14:01 Mostly Cloudy 81 27.2 71 21.7 72 72 E 7 11 29.72 1006 10 16 N/A
2:53 pm 14:53 Mostly Cloudy 80 26.7 71 21.7 74 74 VRB 3 6 29.70 1006 10 16 N/A
3:53 pm 15:53 Mostly Cloudy 81 27.2 71 21.7 72 72 ENE 6 9 29.68 1005 10 16 N/A
4:43 pm 16:43 Cloudy with Nearby Thunderstorms 79 26.1 71 21.7 77 77 ESE 3 6 29.65 1004 10 16 N/A
4:53 pm 16:53 Mostly Cloudy with Nearby Thunderstorms 79 26.1 70 21.1 74 74 E 6 9 29.66 1004 10 16 N/A
5:08 pm 17:08 Partly Cloudy with Nearby Thunderstorms 78 25.6 72 22.2 82 82 N N/A 29.65 1004 10 16 N/A
5:53 pm 17:53 Mostly Cloudy with Nearby Thunderstorms 76 24.4 69 20.6 79 79 NW 8 13 29.66 1004 10 16 N/A
6:44 pm 18:44 Cloudy with Heavy Thunderstorms 72 22.2 69 20.6 91 91 W 18 30 29.70 1006 3 4 0.14 3.56
6:46 pm 18:46 Mostly Cloudy with Heavy Thunderstorms 71 21.7 68 20 90 90 W 18 30 29.70 1006 1 2 0.21 5.33
6:51 pm 18:51 Cloudy with Heavy Thunderstorms 70 21 68 20 94 94 W 14 22 29.69 1006 1 1 0.37 9.40
6:53 pm 18:53 Cloudy with Heavy Thunderstorms 69 20.6 68 20 96 96 WNW 15 24 29.70 1006 1 1 0.44 11.18
7:00 pm 19:00 Cloudy with Heavy Thunderstorms 69 20.6 68 20 96 96 NW 10 17 29.67 1005 1 2 0.05 1.27
7:05 pm 19:05 Cloudy with Thunderstorms 69 20.6 68 20 96 96 NW 8 13 29.67 1005 2 3 0.06 1.52
7:09 pm 19:09 Cloudy with Thunderstorms 69 20.6 68 20 96 96 NW 7 11 29.67 1005 3 5 0.07 1.78
7:12 pm 19:12 Cloudy with Nearby Thunderstorms 69 20.6 68 20 96 96 NW 6 9 29.68 1005 1 2 0.07 1.78
7:22 pm 19:22 Mostly Cloudy with Rain 69 20.6 68 20 96 96 VRB 3 6 29.68 1005 3 4 0.08 2.03
7:29 pm 19:29 Cloudy with Light Rain 69 20.6 68 20 96 96 N N/A 29.68 1005 9 14 0.08 2.03
7:53 pm 19:53 Mostly Cloudy 69 20.6 69 20.6 100 100 N N/A 29.69 1005 10 16 0.08 2.03
8:53 pm 20:53 Sunny 70 21.1 69 20.6 97 97 N N/A 29.67 1005 9 14 N/A
9:23 pm 21:23 Partly Cloudy with Mist and Fog 70 21.1 69 20.6 97 97 N N/A 29.65 1004 6 10 N/A
9:53 pm 21:53 Mostly Cloudy with Mist and Fog 69 20.6 69 20.6 100 100 N N/A 29.65 1004 4 6 N/A
10:53 pm 22:53 Partly Cloudy with Mist and Fog 70 21.1 69 20.6 97 97 N N/A 29.65 1004 4 6 N/A
11:24 pm 23:24 Mostly Clear with Mist and Fog 70 21.1 69 20.6 97 97 N N/A 29.63 1003 3 5 N/A
11:53 pm 23:53 Mostly Cloudy with Mist and Fog 70 21.1 69 20.6 97 97 N N/A 29.64 1004 3 5 N/A

Powered by AerisWeather